Location: Tyumen
(57.1527°N, 65.5323°E)
Time: 15:18:55
(UTC+05:00)

ISS - Pass Details

Date: 19 May 2025
Orbit: 415 x 418 km, 51.6° (Epoch: 19 June)

Event Time Altitude Azimuth Distance (km) Brightness Sun altitude
Rises 22:04:10 0° 267° (W) 2,363 0.5 -6.8°
Reaches altitude 10° 22:06:31 10° 253° (WSW) 1,496 -0.7 -6.9°
Maximum altitude 22:09:15 23° 198° (SSW) 928 -2.3 -7.2°
Drops below altitude 10° 22:11:59 10° 143° (SE) 1,490 -1.7 -7.4°
Enters shadow 22:12:00 10° 143° (SE) 1,493 -1.7 -7.4°
